Flag for Germany Past Weather in Leinfelden-Echterdingen, Baden-Württemberg, Germany — Yesterday and Last 2 Weeks

Now
41 °F

Light rain. Partly cloudy.


Feels Like: 41 °F
Forecast: 38 / 47 °F
Wind: 1 mph from North

Location: Stuttgart-Echterdingen

Current Time: Apr 26, 2017 at 10:01:05 pm

Latest Report: Apr 26, 2017 at 9:20 pm


Visibility: N/A

Pressure: 29.89 "Hg

Humidity: 87%

Dew Point: 37 °F

Location of Leinfelden-EchterdingenLocation

Past Weather in Leinfelden-Echterdingen — Graph

°F

Leinfelden-Echterdingen Temperature Yesterday

Maximum temperature yesterday: 57 °F (at 12:50 pm)
Minimum temperature yesterday: 39 °F (at 8:20 pm)
Average temperature yesterday: 47 °F

High & Low Weather Summary for the Past Weeks

 TemperatureHumidityPressure
High66 °F (Apr 12, 3:20 pm)100% (Apr 18, 9:20 pm)30.54 "Hg (Apr 18, 9:20 pm)
Low27 °F (Apr 20, 5:20 am)27% (Apr 21, 4:50 pm)29.74 "Hg (Apr 25, 2:20 am)
Average45 °F68%30.11 "Hg
* Reported Apr 11 8:20 pm — Apr 26 8:50 pm, Leinfelden-Echterdingen, Weather by CustomWeather, © 2017

Note: Actual official high and low records may vary slightly from our data, if they occured in-between our weather recording intervals... More about our weather records

Advertising

Leinfelden-Echterdingen Weather History for the Previous 24 Hours

Scroll right to see more
 ConditionsComfort  
Time TempWeatherWind HumidityBarometerVisibility
8:50 pm
Wed, Apr 26
41 °FPassing clouds.1 mph87%29.86 "HgN/A
8:20 pm41 °FPartly sunny.2 mph87%29.86 "HgN/A
7:50 pm41 °FPartly sunny.2 mph87%29.86 "HgN/A
7:20 pm41 °FLight rain. Broken clouds.1 mph87%29.86 "HgN/A
6:50 pm41 °FLight rain. Broken clouds.5 mph87%29.86 "HgN/A
6:20 pm41 °FLight rain. Partly sunny.6 mph87%29.86 "HgN/A
5:50 pm43 °FLight rain. Broken clouds.10 mph81%29.86 "HgN/A
5:20 pm43 °FLight rain. Partly sunny.9 mph81%29.86 "HgN/A
4:50 pm43 °FLight rain. Broken clouds.5 mph81%29.83 "HgN/A
4:20 pm43 °FLight rain. Broken clouds.3 mph81%29.86 "HgN/A
3:50 pm43 °FLight rain. Broken clouds.5 mph81%29.86 "HgN/A
3:20 pm43 °FLight rain. Broken clouds.3 mph81%29.83 "HgN/A
2:50 pm43 °FLight rain. Broken clouds.2 mph81%29.83 "HgN/A
2:20 pm43 °FLight rain. Broken clouds.3 mph81%29.83 "HgN/A
1:50 pm41 °FLight rain. Partly sunny.2 mph87%29.83 "HgN/A
1:20 pm41 °FLight rain. Partly sunny.3 mph87%29.83 "HgN/A
12:50 pm41 °FLight rain. Partly sunny.5 mph87%29.83 "HgN/A
11:50 am39 °FLight rain. Partly sunny.5 mph93%29.83 "HgN/A
11:20 am39 °FLight rain. Partly sunny.7 mph87%29.83 "HgN/A
10:50 am37 °FLight rain. Partly sunny.6 mph93%29.83 "HgN/A
10:20 am37 °FLight rain. Partly sunny.5 mph93%29.80 "HgN/A
9:50 am37 °FLight rain. Partly sunny.5 mph93%29.80 "Hg4 mi
9:20 am36 °FLight rain. Partly sunny.6 mph93%29.80 "Hg3 mi
8:50 am36 °FLight rain. Partly sunny.6 mph93%29.80 "Hg3 mi
8:20 am36 °FLight rain. Partly sunny.6 mph93%29.80 "Hg2 mi
7:50 am36 °FLight rain. Partly sunny.3 mph93%29.80 "Hg4 mi
7:20 am36 °FLight rain. Partly sunny.3 mph93%29.80 "Hg4 mi
6:50 am36 °FLight rain. Partly sunny.3 mph93%29.77 "Hg4 mi
6:20 am36 °FLight rain. Partly sunny.2 mph93%29.77 "Hg4 mi
5:50 am36 °FLight rain. Passing clouds.3 mph93%29.77 "Hg4 mi
5:20 am36 °FLight rain. Passing clouds.3 mph93%29.77 "Hg5 mi
4:50 am36 °FLight rain. Passing clouds.2 mph93%29.77 "Hg5 mi
4:20 am37 °FLight rain. Mostly cloudy.7 mph93%29.77 "Hg6 mi
3:50 am37 °FLight rain. Mostly cloudy.6 mph93%29.77 "HgN/A
3:20 am37 °FLight rain. Mostly cloudy.5 mph93%29.77 "HgN/A
2:50 am37 °FLight rain. Mostly cloudy.3 mph93%29.80 "HgN/A
2:20 am37 °FLight rain. Mostly cloudy.6 mph93%29.80 "HgN/A
1:50 am37 °FLight rain. Mostly cloudy.5 mph93%29.80 "HgN/A
1:20 am37 °FLight rain. Mostly cloudy.8 mph93%29.80 "HgN/A
12:50 am39 °FLight rain. Mostly cloudy.9 mph87%29.80 "HgN/A
12:20 am39 °FLight rain. Mostly cloudy.6 mph93%29.80 "HgN/A
11:50 pm
Tue, Apr 25
39 °FLight rain. Mostly cloudy.3 mph87%29.80 "HgN/A
11:20 pm39 °FLight rain. Mostly cloudy.2 mph93%29.80 "HgN/A
10:50 pm39 °FLight rain. Mostly cloudy.3 mph87%29.80 "HgN/A
10:20 pm39 °FLight rain. Mostly cloudy.2 mph87%29.80 "HgN/A
Weather by CustomWeather, © 2017

See weather overviewHow to use our weather pages